星链-3527 (STARLINK-3527 )

导读 | 星芒AI

STARLINK-3527 是 SpaceX Starlink 项目中的一颗低轨道通信卫星,属于该星座的第三批发射任务之一。该卫星旨在为全球用户提供高速互联网服务,尤其关注网络覆盖不足的地区。它运行在约 550 公里的轨道高度,采用先进的星间通信技术,以减少对地面基站的依赖。STARLINK-3527 与其他 Starlink 卫星协同工作,提升网络稳定性和数据传输效率,为用户带来更优质的互联网体验。

基本信息
目录编号:
51726
目录名称:
STARLINK-3527
国际标识:
2022-016N
轨道中心:
EARTH
卫星名称:
星链-3527
卫星全名:
星链-3527 (STARLINK-3527 )
卫星状态:
在轨 (已飞行1398 天)
发射日期:
2022-02-21 UTC
国别 :
美国 (US)
星等 :
--
轨道信息
数据来源 国际轨道数据 AOE轨道数据
星历时间 2025-12-19T15:58:36+0800
1天前
查看轨道信息
2025-12-19T21:00:00+0800
23小时前
查看轨道信息
半长轴 6917.867km 6917.879km
偏心率 0.0001573 0.0001694
轨道倾角 53.219° 53.217°
近地点辐角 84.357° 77.440°
升交点赤经 319.859° 318.921°
平近点角 275.760° 340.215°
近地点 538.641km 538.57km
远地点 540.819km 540.914km
周期 95.437分钟 95.438分钟
每日圈数 15.088444 15.088407
详细信息
固有亮度:
5
最大亮度:
2.5
卫星平台:
Starlink v1.5
覆盖范围:
全球
运营商:
太空探索技术公司
运营商所在国:
美国
制造商(研发单位):
太空探索技术公司
制造商所在国:
美国
使用方式:
暂无
卫星简介
星链(Starlink)计划是由太空探索技术公司(SpaceX)提出的一个巨型低轨卫星互联网星座项目,计划在2019年至2024年间在太空搭建由约1.2万颗卫星组成的“星链”网络,其中1584颗将部署在地球上空550千米处的近地轨道,并从2020年开始工作。该卫星仍在工作。
2D轨道图
3D轨道图
轨道高度分析图
轨道倾角分析图
轨道综合分析图
查看轨道综合分析图